Location: Brno
(49.2000°N, 16.6330°E)
Time: 23:08:51
(UTC+02:00)

Vanguard 3 - Pass Details

Date: 04 August 2021
Orbit: 510 x 3260 km, 33.3° (Epoch: 22 September)

Event Time Altitude Azimuth Distance (km) Brightness Sun altitude
Rises 00:12:47 0° 275° (W) 6,968 12.1 -22.7°
Reaches altitude 10° 00:18:44 10° 263° (W) 6,131 11.6 -22.9°
Maximum altitude 00:32:09 24° 220° (SW) 5,026 10.8 -23.3°
Enters shadow 00:36:24 22° 204° (SSW) 5,026 10.6 -23.4°
